Starlink 5553

operational
NORAD ID: 56333 Int'l Des: 2023-058 Owner: SPXS Country: US Constellation: starlink
LEOCIRCULARRETROGRADESSO

About Starlink 5553

Description loading...

Live Position

Loading 3D Globe...

Upcoming Passes

Altitude History

Altitude vs Time

uPlot chart will show altitude changes over time

Two-Line Element Set

1 56333U 23058S 25302.96249603 .00000295 00000-0 24658-4 0 9994
2 56333 97.6023 302.3295 0001699 87.6511 272.4910 15.05642675138521
Epoch: Oct 29, 2025 • Age: 26 hours

Current Status

Altitude 552.9 km
Velocity 7.59 km/s
Sub-Earth Point 31.13°N, 112.17°W
Launch Date Apr 27, 2023
Age 2.5 years
Type internet

Technical Details

Classification Payload
Mass 300.00 kg
Dry Mass 260.00 kg
Total Mass 300.00 kg
Length 0.20 m
Diameter 2.80 m
Span 9.00 m
Shape Box + pan
Manufacturer SPXS
Bus Type Starlink
Phase Status In Orbit
Owner/State SPXS/US

Large Constellations

Loading constellations...